Search for airport 
image banner adimage banner ad
image banner ad

DAUG - Ghardaia / Noumerat-Moufdi Zakaria

Located in Ghardaia, Algeria

ICAO - DAUG, IATA - GHA

Data provided by Airmate  

General information

Coordinates: N32°22'54" E3°47'58"
Elevation is 1512 feet MSL.
 
View others Airports in Ghardaïa Province

Operational data

Open for public use
Current time UTC:
Current local time:
Weather
METAR: DAUG 301900Z VRB02KT CAVOK 18/00 Q1026
TAF: TAF DAUG 301700Z 3018/3118 VRB02KT CAVOK
View NOTAMs / SUP AIP / TFR affecting this airport [VIEW]
Communications frequencies: [VIEW]

Runways:

RWY identifierQFULength (ft)Width (ft)SurfaceLDA (ft)
18183°7874148
367874148
12122°10171197ASP
30302°10171197

Airport contact information

Address: Ghardaia Algeria

Satellite view of DAUG